This is the latest recevied weather packets stored in our database for station/object KC3ELT-10. If no packets are shown the sender has not sent any weather packets the latest 10 day(s).
| Time | Temp. | Humidity | Pressure | Rain* | Wind** | Luminosity | Snow |
|---|---|---|---|---|---|---|---|
| 1777879379 | 8.89° C | 50% | 1008.2 hPa | 0 mm | 0.45 m/s, 254° | - | - |
| 1777879079 | 8.89° C | 50% | 1008.2 hPa | 0 mm | 0.45 m/s, 231° | - | - |
| 1777878779 | 9.44° C | 49% | 1008.2 hPa | 0 mm | 0.45 m/s, 221° | - | - |
| 1777878479 | 9.44° C | 48% | 1008.2 hPa | 0 mm | 0.45 m/s, 185° | - | - |
| 1777878179 | 10° C | 47% | 1008.2 hPa | 0 mm | 1.34 m/s, 245° | - | - |
| 1777877879 | 10° C | 47% | 1008.1 hPa | 0 mm | 1.34 m/s, 203° | - | - |
| 1777877579 | 10° C | 46% | 1008.1 hPa | 0 mm | 1.79 m/s, 269° | - | - |
| 1777877279 | 10° C | 47% | 1008.1 hPa | 0 mm | 5.36 m/s, 240° | - | - |
| 1777876979 | 10° C | 46% | 1008.1 hPa | 0 mm | 1.34 m/s, 266° | - | - |
| 1777876679 | 10° C | 47% | 1008.1 hPa | 0 mm | 0.45 m/s, 207° | - | - |
| 1777876379 | 10° C | 46% | 1008.1 hPa | 0 mm | 2.68 m/s, 257° | - | - |
| 1777876079 | 10° C | 47% | 1008.1 hPa | 0 mm | 2.24 m/s, 287° | - | - |
| 1777875779 | 10° C | 47% | 1008.1 hPa | 0 mm | 2.68 m/s, 254° | - | - |
| 1777875479 | 9.44° C | 47% | 1008.1 hPa | 0 mm | 0.45 m/s, 269° | - | - |
| 1777875179 | 9.44° C | 48% | 1008.3 hPa | 0 mm | 2.68 m/s, 252° | - | - |
| 1777874879 | 9.44° C | 49% | 1008.3 hPa | 0 mm | 3.13 m/s, 251° | - | - |
| 1777874579 | 9.44° C | 49% | 1008.3 hPa | 0 mm | 0.45 m/s, 275° | - | - |
| 1777874279 | 9.44° C | 49% | 1008.3 hPa | 0 mm | 0.89 m/s, 257° | - | - |
| 1777873979 | 9.44° C | 48% | 1008.3 hPa | 0 mm | 0 m/s | - | - |
| 1777873679 | 9.44° C | 49% | 1008.3 hPa | 0 mm | 1.79 m/s, 263° | - | - |
| 1777873379 | 9.44° C | 49% | 1008.3 hPa | 0 mm | 0.45 m/s, 221° | - | - |
| 1777873079 | 9.44° C | 48% | 1008.3 hPa | 0 mm | 1.79 m/s, 208° | - | - |
| 1777872779 | 9.44° C | 49% | 1008.3 hPa | 0 mm | 0.89 m/s, 259° | - | - |
| 1777872479 | 9.44° C | 48% | 1008.2 hPa | 0 mm | 0.45 m/s, 240° | - | - |
| 1777872179 | 9.44° C | 48% | 1008.2 hPa | 0 mm | 0.45 m/s, 217° | - | - |
* Rain latest hour (hover to see other rain measurements)
** Current wind speed in m/s (hover to see current wind gust speed)